FW2545 Weather Reports


Display with metric or nautical units.
time (UTC)temp
F
wind
direction
speed
MPH
gust
MPH
rain 1hr
in
rain 24hr
in
rain mn
in
humidity
%
barometer
mb
20260904030111 53 202 0.0 1.0 0.00 0.04 0.01 84 1012.8
20260904024610 53 208 2.0 5.0 0.00 0.04 0.01 82 1012.8
20260904023144 54 208 3.0 8.0 0.00 0.04 0.01 80 1012.5
20260904021529 55 327 1.0 4.0 0.00 0.04 0.01 77 1012.4
20260904014641 56 247 0.0 4.0 0.00 0.04 0.01 72 1012.5
20260904013036 57 273 1.0 5.0 0.00 0.04 0.01 70 1012.2
20260904011652 57 288 3.0 8.0 0.00 0.04 0.01 69 1012.1
20260904010148 59 285 4.0 10.0 0.00 0.04 0.01 67 1012.0
20260904004532 60 283 6.0 13.0 0.00 0.04 0.01 66 1012.0
20260904003033 60 274 7.0 15.0 0.00 0.04 0.01 66 1012.0
20260904000033 63 295 6.0 15.0 0.00 0.04 0.01 57 1011.8
20260903234644 65 304 4.0 11.0 0.00 0.04 0.01 52 1011.8
20260903231532 67 312 5.0 11.0 0.00 0.04 0.01 47 1011.7
20260903230144 68 14 2.0 7.0 0.00 0.04 0.01 44 1011.7
20260903224530 69 200 5.0 12.0 0.00 0.04 0.01 40 1011.9
20260903223029 71 163 4.0 10.0 0.00 0.04 0.01 39 1012.0
20260903221535 72 158 6.0 15.0 0.00 0.04 0.01 40 1012.1
20260903220140 69 144 6.0 14.0 0.00 0.04 0.01 42 1012.3
20260903213109 70 175 6.0 16.0 0.00 0.04 0.01 43 1012.4
20260903211537 71 211 4.0 13.0 0.00 0.04 0.01 46 1012.2
20260903210036 69 201 6.0 18.0 0.00 0.04 0.01 43 1012.3
20260903204531 68 169 11.0 20.0 0.00 0.04 0.01 44 1012.5
20260903203032 67 173 10.0 17.0 0.00 0.04 0.01 46 1012.6
20260903201529 66 175 10.0 19.0 0.00 0.04 0.01 48 1012.8
20260903200030 65 179 11.0 18.0 0.00 0.04 0.01 53 1013.1
20260903194532 63 190 10.0 18.0 0.00 0.04 0.01 63 1013.3
20260903193110 60 150 6.0 13.0 0.00 0.04 0.01 81 1013.6
20260903191533 58 15 2.0 6.0 0.00 0.04 0.01 88 1013.9
20260903190031 57 331 2.0 7.0 0.00 0.04 0.01 89 1014.0
20260903184532 57 315 4.0 10.0 0.00 0.04 0.01 90 1014.0
20260903183035 57 320 5.0 11.0 0.00 0.04 0.01 90 1014.0
20260903181534 57 317 4.0 10.0 0.00 0.04 0.01 92 1014.0
20260903180032 56 298 2.0 7.0 0.00 0.04 0.01 93 1014.0
20260903174534 55 284 3.0 7.0 0.00 0.04 0.01 94 1013.9
20260903173036 54 300 3.0 5.0 0.00 0.04 0.01 95 1014.0
20260903171536 54 317 4.0 8.0 0.00 0.04 0.01 95 1014.0
20260903170109 53 294 3.0 7.0 0.00 0.04 0.01 95 1014.1
20260903164530 52 304 3.0 7.0 0.00 0.04 0.01 96 1014.1
20260903163034 52 328 4.0 9.0 0.00 0.04 0.01 96 1014.1
20260903161536 52 326 4.0 11.0 0.00 0.04 0.01 96 1014.1
20260903154531 51 250 2.0 5.0 0.00 0.04 0.01 96 1014.0
20260903153142 50 266 2.0 4.0 0.01 0.04 0.01 96 1014.0
20260903151644 48 247 0.0 2.0 0.01 0.04 0.01 96 1014.0
20260903144534 46 247 0.0 2.0 0.01 0.04 0.00 96 1014.0
20260903143031 45 188 0.0 2.0 0.00 0.03 0.00 96 1014.0
20260903141534 44 138 1.0 3.0 0.00 0.03 0.00 96 1013.8
20260903140037 43 156 0.0 4.0 0.00 0.03 0.00 95 1013.6
20260903134531 44 158 0.0 3.0 0.00 0.03 0.00 95 1013.6
20260903133032 43 222 0.0 3.0 0.00 0.03 0.00 95 1013.6
20260903131607 43 245 0.0 1.0 0.00 0.03 0.00 95 1013.5
20260903130030 42 283 0.0 3.0 0.00 0.03 0.00 95 1013.4
20260903124534 42 292 0.0 4.0 0.00 0.03 0.00 95 1013.4
20260903123108 41 266 1.0 4.0 0.00 0.03 0.00 95 1013.3
20260903121534 41 197 0.0 5.0 0.00 0.03 0.00 95 1013.3
20260903114533 41 269 0.0 4.0 0.00 0.03 0.00 95 1013.2
20260903113036 41 271 0.0 3.0 0.00 0.03 0.00 95 1013.1
20260903111530 41 170 0.0 4.0 0.00 0.03 0.00 95 1013.0
20260903110031 41 172 0.0 3.0 0.00 0.03 0.00 94 1012.9
20260903104644 42 284 0.0 5.0 0.00 0.03 0.00 94 1012.9
20260903101529 43 292 0.0 2.0 0.00 0.03 0.00 94 1013.0
20260903100035 43 287 2.0 5.0 0.00 0.03 0.00 94 1012.9
20260903094642 44 269 1.0 6.0 0.00 0.03 0.00 94 1012.7
20260903093031 44 280 1.0 5.0 0.00 0.03 0.00 94 1012.8
20260903091530 45 270 0.0 3.0 0.00 0.03 0.00 94 1012.9
20260903090034 46 270 0.0 0.0 0.00 0.03 0.00 94 1012.9
20260903083142 47 184 0.0 3.0 0.00 0.03 0.00 93 1012.6
20260903081643 48 164 3.0 5.0 0.00 0.03 0.00 93 1012.7
20260903080034 47 190 0.0 3.0 0.00 0.03 0.00 93 1012.9
20260903073030 48 292 0.0 0.0 0.00 0.03 0.00 92 1012.4
20260903071643 48 292 0.0 2.0 0.00 0.03 0.00 92 1012.3
20260903070030 48 292 0.0 2.0 0.00 0.03 0.00 92 1012.2
20260903064535 50 292 0.0 0.0 0.00 0.03 0.03 92 1012.2
20260903063029 50 292 0.0 4.0 0.00 0.03 0.03 91 1012.2
20260903060030 52 22 0.0 3.0 0.00 0.03 0.03 91 1012.2
20260903054606 53 22 0.0 3.0 0.00 0.03 0.03 91 1012.4
20260903053032 54 22 0.0 0.0 0.00 0.03 0.03 90 1012.5
20260903051607 54 22 0.0 2.0 0.00 0.03 0.03 90 1012.3
20260903050031 54 22 1.0 3.0 0.00 0.03 0.03 89 1012.1
20260903044530 54 32 1.0 4.0 0.00 0.03 0.03 88 1012.0
20260903043029 54 45 0.0 1.0 0.00 0.03 0.03 87 1012.1
20260903041644 54 21 0.0 3.0 0.01 0.03 0.03 86 1011.8
20260903040041 54 292 0.0 1.0 0.03 0.03 0.03 85 1011.7
20260903040034 54 287 2.0 6.0 0.03 0.03 0.03 83 1011.5
20260903033142 56 279 4.0 9.0 0.03 0.03 0.02 79 1011.2
20260903031648 59 267 8.0 14.0 0.02 0.02 0.00 76 1011.1